CW8081 Weather Reports


Display with metric or nautical units.
time (UTC)temp
F
wind
direction
speed
MPH
gust
MPH
rain 1hr
in
rain 24hr
in
rain mn
in
humidity
%
barometer
mb
20260508110105 63 0 0.0 0.0 0.01 0.02 0.02 87 1016.7
20260508103104 64 0 0.0 0.0 0.00 0.02 0.01 87 1017.4
20260508101104 64 0 0.0 0.0 0.01 0.02 0.01 86 1017.4
20260508100105 64 257 0.0 0.0 0.01 0.02 0.01 86 1017.9
20260508094604 64 0 0.0 0.0 0.01 0.02 0.01 85 1017.9
20260508094104 64 0 0.0 1.0 0.01 0.02 0.01 85 1017.9
20260508093105 65 0 0.0 5.0 0.01 0.02 0.01 84 1018.0
20260508091605 65 0 0.0 2.0 0.00 0.01 0.00 82 1017.6
20260508091105 65 0 0.0 2.0 0.00 0.01 0.00 82 1017.6
20260508090104 66 0 0.0 0.0 0.00 0.01 0.00 81 1017.6
20260508084104 66 0 0.0 0.0 0.00 0.01 0.00 79 1017.1
20260508083604 66 0 0.0 0.0 0.00 0.01 0.00 78 1017.1
20260508083104 66 0 0.0 0.0 0.00 0.01 0.00 78 1017.1
20260508081604 67 0 0.0 0.0 0.00 0.01 0.00 77 1016.3
20260508080605 67 0 0.0 0.0 0.00 0.01 0.00 76 1016.3
20260508080105 66 0 0.0 0.0 0.00 0.01 0.00 77 1016.3
20260508074605 65 0 0.0 0.0 0.00 0.01 0.00 80 1016.3
20260508074105 65 0 0.0 0.0 0.00 0.01 0.00 81 1016.3
20260508073604 65 0 0.0 0.0 0.00 0.01 0.00 82 1016.3
20260508071605 63 0 0.0 0.0 0.00 0.01 0.00 84 1016.9
20260508070605 63 0 0.0 0.0 0.00 0.01 0.00 85 1017.1
20260508063604 61 0 0.0 2.0 0.00 0.01 0.00 87 1016.4
20260508060605 60 0 0.0 0.0 0.00 0.01 0.00 88 1016.3
20260508060105 60 0 0.0 1.0 0.00 0.01 0.00 88 1015.9
20260508053104 59 0 0.0 1.0 0.00 0.01 0.00 89 1015.9
20260508051604 58 0 0.0 1.0 0.00 0.01 0.00 88 1015.9
20260508043104 58 0 0.0 0.0 0.00 0.01 0.00 88 1015.6
20260508041604 58 0 0.0 0.0 0.00 0.01 0.00 88 1015.7
20260508040604 58 0 0.0 0.0 0.00 0.01 0.00 88 1015.7
20260508034104 57 0 0.0 1.0 0.00 0.01 0.00 88 1015.7
20260508031605 57 0 0.0 0.0 0.00 0.01 0.00 87 1015.8
20260508023604 58 0 0.0 0.0 0.00 0.01 0.00 87 1015.4
20260508021105 58 0 0.0 0.0 0.00 0.01 0.00 87 1015.4
20260508014605 58 0 0.0 0.0 0.00 0.01 0.00 86 1015.4
20260508014105 59 0 0.0 0.0 0.00 0.01 0.00 86 1015.7
20260508013604 59 0 0.0 0.0 0.00 0.01 0.00 86 1015.7
20260508013104 59 0 0.0 0.0 0.00 0.01 0.00 86 1015.7
20260508011105 59 0 0.0 0.0 0.00 0.01 0.00 86 1015.7
20260508010105 59 0 0.0 0.0 0.00 0.01 0.00 87 1016.2
20260508004105 59 227 0.0 0.0 0.00 0.01 0.00 86 1016.2
20260508003105 59 0 0.0 0.0 0.00 0.01 0.00 86 1016.2
20260508001604 59 0 0.0 0.0 0.00 0.01 0.00 85 1016.2
20260508001104 59 0 0.0 0.0 0.00 0.01 0.00 85 1016.2
20260508000604 59 0 0.0 0.0 0.00 0.01 0.00 85 1016.2
20260507234104 60 0 0.0 0.0 0.00 0.01 0.00 85 1016.4
20260507233104 60 0 0.0 2.0 0.00 0.01 0.00 85 1016.4
20260507231604 60 0 0.0 0.0 0.00 0.01 0.00 85 1016.8
20260507230605 60 0 0.0 0.0 0.00 0.01 0.00 84 1016.8
20260507230105 60 0 0.0 1.0 0.00 0.01 0.00 84 1016.8
20260507223604 61 0 0.0 0.0 0.00 0.01 0.00 83 1016.8
20260507221604 61 0 0.0 0.0 0.00 0.01 0.00 83 1016.7
20260507221105 61 0 0.0 0.0 0.00 0.01 0.00 82 1016.7
20260507213104 62 0 0.0 0.0 0.00 0.01 0.00 81 1016.7
20260507211604 62 0 0.0 0.0 0.00 0.01 0.00 81 1016.7
20260507210604 62 0 0.0 0.0 0.00 0.01 0.00 80 1016.7
20260507210105 62 0 0.0 0.0 0.00 0.01 0.00 80 1016.7
20260507204104 62 0 0.0 0.0 0.00 0.01 0.01 80 1016.7
20260507203605 62 0 0.0 0.0 0.00 0.01 0.01 80 1016.7
20260507203104 62 0 0.0 1.0 0.00 0.01 0.01 80 1016.7
20260507201104 63 0 0.0 0.0 0.00 0.01 0.01 79 1016.6
20260507200604 63 0 0.0 0.0 0.00 0.01 0.01 79 1016.7
20260507200105 63 0 0.0 0.0 0.00 0.01 0.01 78 1016.7
20260507194604 63 0 0.0 1.0 0.00 0.01 0.01 78 1016.8
20260507194104 64 0 0.0 0.0 0.00 0.01 0.01 78 1016.8
20260507193604 64 0 0.0 3.0 0.00 0.01 0.01 77 1016.7
20260507191105 64 0 0.0 3.0 0.00 0.01 0.01 77 1016.7
20260507190604 64 0 0.0 1.0 0.00 0.01 0.01 76 1016.7
20260507190104 64 0 0.0 1.0 0.00 0.01 0.01 76 1016.5
20260507184105 65 0 0.0 0.0 0.00 0.01 0.01 75 1016.5
20260507183104 65 0 0.0 0.0 0.00 0.01 0.01 75 1016.5
20260507181604 66 0 0.0 0.0 0.00 0.01 0.01 74 1016.5
20260507174605 66 0 0.0 0.0 0.00 0.01 0.01 73 1016.5
20260507173604 67 0 0.0 0.0 0.00 0.01 0.01 73 1016.5
20260507171604 67 0 0.0 0.0 0.00 0.01 0.01 71 1016.5
20260507171104 67 0 0.0 0.0 0.00 0.01 0.01 71 1016.5
20260507164604 67 0 0.0 0.0 0.00 0.01 0.01 70 1016.5
20260507163105 67 0 0.0 0.0 0.00 0.01 0.01 71 1016.5
20260507161604 67 0 0.0 0.0 0.00 0.01 0.01 71 1016.6
20260507161104 67 0 0.0 0.0 0.00 0.01 0.01 72 1016.6
20260507160605 67 0 0.0 0.0 0.00 0.01 0.01 72 1016.6
20260507160105 67 0 0.0 0.0 0.00 0.01 0.01 72 1016.6
20260507154605 67 0 0.0 0.0 0.00 0.01 0.01 75 1016.5
20260507154105 67 0 0.0 0.0 0.00 0.01 0.01 76 1016.6
20260507153604 67 0 0.0 0.0 0.00 0.01 0.01 76 1016.6
20260507153104 67 0 0.0 0.0 0.00 0.01 0.01 76 1016.8
20260507151605 68 0 0.0 0.0 0.00 0.01 0.01 75 1016.8
20260507150104 68 0 0.0 0.0 0.00 0.01 0.01 72 1016.7
20260507144604 69 358 0.0 0.0 0.00 0.01 0.01 70 1016.8
20260507143604 69 0 0.0 0.0 0.00 0.01 0.01 70 1016.8
20260507140604 70 0 0.0 1.0 0.00 0.01 0.01 67 1016.6
20260507134104 68 339 0.0 0.0 0.00 0.01 0.01 73 1016.7
20260507133604 68 298 0.0 0.0 0.00 0.01 0.01 73 1016.7
20260507130104 68 0 0.0 0.0 0.00 0.01 0.01 76 1016.7
20260507124104 68 288 0.0 0.0 0.00 0.01 0.01 75 1017.9
20260507123604 68 316 0.0 0.0 0.00 0.01 0.01 75 1017.9
20260507120104 68 304 0.0 0.0 0.00 0.01 0.01 77 1017.9
20260507114604 67 301 0.0 0.0 0.01 0.01 0.01 77 1017.9
20260507114104 68 301 0.0 0.0 0.01 0.01 0.01 76 1018.3
20260507113604 68 297 0.0 0.0 0.01 0.01 0.01 76 1018.3
20260507111104 68 296 0.0 2.0 0.01 0.01 0.01 74 1018.4
20260507110604 68 296 0.0 0.0 0.01 0.01 0.01 74 1018.4